Location: Sihaung
(22.8641°N, 94.0549°E)
Time: 17:54:12
(UTC+00:00)

OAO 3 Rocket - Pass Details

Date: 03 March 2021
Orbit: 629 x 682 km, 35.0° (Epoch: 13 April)

Event Time Altitude Azimuth Distance (km) Brightness Sun altitude
Exits shadow 22:30:04 33° 335° (NNW) 1,116 4.1 -22.2°
Maximum altitude 22:30:17 33° 341° (NNW) 1,112 4.2 -22.1°
Drops below altitude 10° 22:34:37 10° 45° (NE) 2,056 6.4 -21.1°
Sets 22:37:10 0° 55° (NE) 2,957 7.5 -20.5°
